Location: ????????
(60.6555°N, 46.8499°E)
Time: 07:04:01
(UTC+00:00)

Daily predictions for brighter satellites

Satellite Brightness Start Highest point End
(mag) Time Altitude Azimuth Time Altitude Azimuth Time Altitude Azimuth
NOAA 6 4.1 12:28:37 10° SE 12:33:38 57° ENE 12:38:40 10° NNW
Genesis I 3.6 12:30:25 10° WNW 12:34:22 70° SW 12:38:13 10° SE
COSMOS 2428 3.6 12:30:26 10° S 12:35:27 33° ESE 12:40:30 10° NE
SeaSat 1 3.7 12:31:47 10° ENE 12:35:42 24° N 12:39:36 10° NW
CZ-4C R/B 3.1 12:32:48 10° NNE 12:35:55 48° ESE 12:39:00 10° S
Meteor 1-5 Rocket 4.2 12:30:25 10° NNW 12:35:59 60° ENE 12:41:19 10° SSE
Cosmos 1869 Rocket 3.8 12:32:44 10° NNW 12:37:11 79° WSW 12:41:39 10° S
H-2A R/B 3.9 12:34:47 10° ESE 12:37:39 21° NE 12:40:30 10° N
Cosmos 1867 3.6 12:32:09 10° WNW 12:37:39 77° NNE 12:43:09 10° ESE
Lacrosse 4 Rocket 2.4 12:34:08 10° WNW 12:37:47 30° N 12:41:30 10° ENE
CZ-4B R/B 3.4 12:35:01 10° S 12:38:38 60° WSW 12:42:24 10° NNW
Meteor 1-26 Rocket 4.3 12:33:59 10° S 12:39:37 64° E 12:45:08 10° NNE
Cosmos 1666 3.7 12:37:26 10° N 12:40:34 24° ENE 12:43:39 10° ESE
Cosmos 2278 Rocket 2.7 12:40:32 10° NW 12:46:11 67° WSW 12:51:47 10° SSE
CZ-4B R/B 3.2 12:42:20 10° SSE 12:47:43 73° ENE 12:53:14 10° NNW
Cosmos 1689 Rocket 3.8 12:47:12 10° NE 12:49:26 18° E 12:51:38 10° SE
IRS-1C Rocket 4.4 12:45:59 10° SE 12:50:58 45° ENE 12:55:58 10° NNW
Cosmos 2360 Rocket 2.3 12:46:18 10° SSW 12:51:59 80° SE 12:57:43 10° NE
Cosmos 1328 Rocket 4.5 12:48:15 10° SW 12:52:25 46° WNW 12:56:37 10° N
Cosmos 2322 4.0 12:47:01 10° SSW 12:52:36 59° ESE 12:58:13 10° NE
Cosmos 1606 3.0 12:51:20 10° SSW 12:55:08 68° WNW 12:59:00 10° N
Cosmos 1656 Rocket 4.4 12:50:45 10° NW 12:55:39 32° NNE 13:00:33 10° E
Cosmos 2369 Rocket 2.6 12:50:40 10° NW 12:56:02 43° NNE 13:01:24 10° E
Aureole 2 Rocket 4.4 12:54:52 10° N 12:56:06 12° NNE 12:57:20 10° NE
NOSS 8 (H) 4.4 12:53:11 10° WSW 12:56:17 78° SSE 12:59:49 10° ENE
COSMOS 2455 3.0 12:50:50 10° WSW 12:56:53 79° NW 13:02:56 10° NE
NOSS 2-2 (D) 3.6 12:53:25 10° WSW 12:57:21 81° SSE 13:02:20 10° ENE
Cosmos 1782 Rocket 4.5 12:54:34 10° N 12:58:17 26° ENE 13:01:57 10° ESE
Cosmos 1980 Rocket 3.1 12:53:19 10° W 12:58:41 40° NNW 13:04:04 10° NE
Cosmos 1151 Rocket 4.2 12:58:16 10° SW 13:02:25 41° WNW 13:06:34 10° N
YAOGAN 6 4.1 13:00:48 10° E 13:03:08 17° NE 13:05:30 10° NNE
Cosmos 1048 Rocket 4.3 13:00:59 10° SW 13:06:22 74° NW 13:11:47 10° NNE
Cosmos 1933 4.2 13:03:22 10° SW 13:07:17 50° WNW 13:11:14 10° N
NOSS 3-1 (C) 3.8 13:01:39 10° WNW 13:08:19 78° NNE 13:16:15 10° ESE
Cosmos 1269 Rocket 4.1 13:05:17 10° SSW 13:10:35 75° ESE 13:15:54 10° NE
Helios 1A Rocket 2.9 13:06:58 10° SSE 13:11:05 88° ENE 13:15:10 10° NNW
NOSS 2-3 (E) 4.4 13:05:57 10° WNW 13:11:20 70° N 13:18:22 10° E
SL-16 R/B 3.9 13:08:52 10° SE 13:11:43 14° E 13:14:00 11° ENE
Okean 2 Rocket 4.3 13:08:47 10° N 13:12:14 21° NE 13:15:41 10° ESE
Feng Yun 1-1 Rocket 4.3 13:07:34 10° SE 13:12:50 57° ENE 13:18:12 10° NNW
CORIOLIS 4.4 13:07:41 10° SE 13:12:56 50° ENE 13:18:11 10° NNW
Cosmos 1862 Rocket 4.3 13:10:08 10° SSE 13:14:05 33° E 13:18:04 10° NNE
NOSS 8 (F) 4.4 13:11:53 10° WSW 13:14:59 72° NNW 13:17:59 14° ENE
RESURS DK-1 2.9 13:12:12 10° SSW 13:16:07 43° ESE 13:19:25 14° NE
SMAP 3.2 13:12:33 10° SE 13:17:04 52° ENE 13:21:37 10° NNW
Sich 1 Rocket 4.4 13:13:38 10° N 13:17:32 29° ENE 13:21:24 10° ESE
SAR-Lupe-1 4.5 13:13:57 10° NNE 13:17:32 64° WNW 13:21:06 10° SSW
Cosmos 1743 3.6 13:14:27 10° N 13:17:48 27° ENE 13:21:08 10° ESE
Cosmos 2237 Rocket 3.1 13:13:42 10° SSE 13:18:36 31° ESE 13:22:46 13° NE
Cosmos 1536 2.8 13:14:52 10° N 13:18:54 63° ENE 13:22:53 10° SSE
USA 267 4.1 13:12:35 10° SE 13:18:57 51° SSW 13:25:20 10° W
USA 229 DEB 3.8 13:12:14 10° WNW 13:19:16 81° NNE 13:26:41 10° ESE
Cosmos 1943 Rocket 2.3 13:13:45 10° NW 13:19:20 54° NE 13:24:52 10° ESE
USA 229 3.8 13:12:21 10° WNW 13:19:21 81° NNE 13:26:45 10° ESE
Landsat 5 3.4 13:15:22 10° NNE 13:19:21 85° WNW 13:23:28 10° SSW
Radarsat Rocket 4.1 13:13:42 10° SSE 13:19:37 82° WSW 13:25:32 10° NNW
Cosmos 1939 Rocket 4.5 13:20:03 14° NE 13:20:21 14° NE 13:22:28 10° NNE
Tsikada Rocket 4.4 13:14:35 10° SSW 13:20:57 67° WNW 13:27:17 10° NNE
Cosmos 2322 Rocket 2.7 13:15:45 10° WSW 13:21:18 55° NW 13:26:31 12° NE
NOSS 2-3 (D) 4.4 13:17:00 10° WNW 13:22:24 70° N 13:29:28 10° E
SL-08 R/B 3.8 13:17:33 10° NNE 13:22:27 65° WNW 13:27:16 10° SW
Meteor 2-6 Rocket 4.2 13:18:19 10° S 13:23:39 63° E 13:29:07 10° NNE
NOSS 3-1 (A) 3.8 13:17:58 10° WNW 13:24:36 76° NNE 13:32:30 10° E
Cosmos 2219 Rocket 2.3 13:19:25 10° SSW 13:24:57 61° ESE 13:29:55 13° NE
Cosmos 1697 Rocket 3.8 13:20:28 10° WNW 13:25:26 31° NNW 13:29:38 14° NE
Cosmos 2333 Rocket 2.4 13:20:45 10° SSW 13:26:25 63° ESE 13:31:29 14° NE
NOSS 3-4 (A) 3.7 13:20:48 10° SW 13:26:53 68° SE 13:32:32 15° ENE
NOSS 3-4 (C) 3.7 13:20:53 10° SW 13:26:59 68° SE 13:32:37 15° ENE
Cosmos 1707 Rocket 3.6 13:24:23 10° S 13:28:52 76° E 13:33:21 10° NNE
CZ-4B R/B 1.4 13:25:31 10° NNE 13:29:03 72° ESE 13:32:32 10° S
ALOS 3.0 13:24:42 10° S 13:29:18 57° WSW 13:33:57 10° NNW
Lacrosse 5 rocket 2.7 13:26:58 10° SSW 13:30:38 29° SSE 13:33:38 13° E
SL-16 R/B 2.9 13:26:59 10° WSW 13:32:30 48° NNW 13:37:21 13° NE
Cosmos 1500 3.5 13:28:49 10° NNW 13:32:36 70° WSW 13:36:20 10° S
SL-4 R/B 3.9 13:31:26 10° SW 13:34:18 21° S 13:37:19 10° ESE
Exosat Rocket 4.1 13:30:12 10° S 13:34:49 38° ESE 13:38:37 16° NE
NOSS 2-2 (C) 3.6 13:31:09 10° WSW 13:35:11 79° NNW 13:39:03 17° ENE
Aureole 1 Rocket 4.2 13:33:08 10° SE 13:35:14 16° E 13:35:36 16° E
Cosmos 292 Rocket 4.3 13:30:26 10° NW 13:35:17 65° WSW 13:40:06 10° SSE
Okean O Rocket 2.3 13:32:53 10° S 13:37:10 58° WSW 13:41:30 10° NNW
Cosmos 1812 3.0 13:34:11 10° S 13:37:55 49° E 13:41:17 12° NNE
Envisat 3.2 13:33:58 10° SE 13:38:52 50° ENE 13:43:47 10° NNW
Cosmos 2251 Rocket 3.8 13:35:36 10° S 13:40:40 49° ESE 13:44:42 16° NE
Cosmos 1908 Rocket 3.5 13:36:56 10° NNW 13:41:22 73° ENE 13:45:44 10° SSE
CSL-04 Rocket 4.1 13:39:54 10° ESE 13:44:43 36° NE 13:49:35 10° NNW
Cosmos 2242 Rocket 4.1 13:40:57 10° SSE 13:45:16 41° E 13:49:08 12° NNE
Cosmos 1782 3.6 13:43:51 10° SW 13:47:44 49° WNW 13:51:37 10° N
Okean 1-7 4.0 13:44:41 10° SE 13:48:19 26° E 13:50:04 20° NE
Cosmos 1300 Rocket 4.4 13:45:59 10° N 13:49:44 28° ENE 13:53:27 10° ESE
H-2A R/B 3.4 13:46:06 10° N 13:49:49 33° WNW 13:53:32 10° WSW
COSMO-SKYMED 1 4.3 13:50:55 15° ESE 13:50:55 15° ESE 13:52:40 10° SE
Cosmos 405 Rocket 3.5 13:46:57 10° N 13:50:10 27° ENE 13:52:00 18° ESE
Cosmos 1980 4.1 13:45:01 10° S 13:50:24 47° ESE 13:54:13 19° NE
Cosmos 2297 4.3 13:49:04 10° NW 13:54:44 63° WSW 14:00:20 10° SSE
NOSS 2-2 (E) 3.8 13:51:39 10° W 13:55:50 70° NNW 13:59:14 22° ENE
SL-16 R/B 3.8 13:50:26 10° NNE 13:55:55 35° NW 14:01:22 10° WSW
S3M 4.3 13:51:49 10° N 13:57:46 43° ENE 14:03:35 10° SE
NOSS 2-3 (C) 4.5 13:53:57 10° WNW 13:59:36 78° NNE 14:06:06 14° ESE
YAOGAN 3 4.5 13:55:57 10° SSE 14:00:18 67° ENE 14:04:40 10° NNW
Cosmos 1733 Rocket 4.4 13:56:53 10° NNW 14:01:02 42° W 14:05:11 10° SSW
Meteor 1-10 Rocket 4.2 13:55:51 10° SSW 14:01:28 87° WNW 14:07:13 10° NNE
YAOGAN 1 3.1 13:57:52 10° SE 14:01:50 36° ENE 14:05:51 10° N
Cosmos 2263 4.3 13:56:14 10° NW 14:02:01 63° NE 14:07:47 10° ESE
Cosmos 1315 Rocket 3.7 13:58:15 10° SW 14:02:11 48° WNW 14:06:12 10° N
Okean-O 2.5 13:57:56 10° SSE 14:02:21 70° ENE 14:06:48 10° NNW
Cosmos 1441 Rocket 3.1 13:58:30 10° NNW 14:02:23 89° WSW 14:06:10 10° SSE
NOAA 12 4.0 13:57:19 10° SSE 14:02:37 77° ENE 14:07:54 10° NNW
ARGOS 4.4 14:03:29 19° NE 14:03:44 20° NE 14:07:28 10° N
ATLAS 2AS CENTAUR R/B 3.1 13:56:36 10° WSW 14:04:42 86° NNW 14:10:19 22° ENE
CZ-4 R/B 1.6 14:01:29 10° SE 14:05:07 40° ENE 14:08:45 10° N
Meteor 1-28 Rocket 4.1 14:01:44 10° N 14:05:23 47° WNW 14:09:01 10° SW
Nadezhda 4 Rocket 4.0 13:59:08 10° S 14:05:25 72° E 14:11:41 10° NNE
OPS 8737 4.3 14:02:40 10° WNW 14:05:35 51° N 14:06:22 38° NE
CSL-04 Debris 4.4 14:01:02 10° SE 14:06:13 48° ENE 14:11:25 10° NNW
Cosmos 921 Rocket 3.4 14:02:02 10° NNW 14:06:16 64° WSW 14:10:33 10° SSE
H-2A R/B 3.4 14:08:09 19° NE 14:08:09 19° NE 14:11:04 10° N
Cosmos 1553 Rocket 4.1 14:02:23 10° N 14:08:40 58° ENE 14:15:00 10° SSE
Cosmos 1570 Rocket 4.4 14:05:23 10° NNW 14:10:21 40° NE 14:13:05 23° E
H-2A R/B 2.9 14:07:50 10° S 14:11:31 70° WSW 14:15:14 10° NNW
SeaSat 1 3.1 14:10:21 26° ENE 14:12:20 36° NNE 14:16:50 10° NW
Cosmos 1975 2.9 14:08:48 10° N 14:12:44 51° ENE 14:16:39 10° SSE
NOSS 0 Rocket 4.0 14:08:28 10° SSW 14:14:39 67° SE 14:18:42 23° NE
Meteor 1-27 Rocket 3.8 14:10:11 10° S 14:16:02 82° ESE 14:22:00 10° NNE
Cosmos 1666 3.3 14:12:46 10° NNW 14:16:29 56° W 14:20:08 10° S
Lacrosse 4 Rocket 1.8 14:13:17 10° NW 14:17:17 45° NNE 14:18:32 34° ENE
COSMOS 2428 2.8 14:13:38 10° SW 14:19:20 79° NW 14:23:12 22° NE
Meteor 2-9 Rocket 4.3 14:15:08 10° NNW 14:21:01 64° ENE 14:26:47 10° SSE
Cosmos 1689 Rocket 2.9 14:19:10 19° N 14:21:05 51° WNW 14:24:02 10° SW
Ariane Rocket 3.6 14:20:26 27° E 14:22:09 35° NE 14:26:43 10° N
USA 215 4.1 14:19:56 22° E 14:23:22 36° SE 14:29:18 10° SSW
Cosmos 1763 Rocket 3.6 14:18:43 10° NNW 14:23:41 49° NE 14:26:21 25° ESE
Cosmos 2151 Rocket 3.8 14:19:56 10° N 14:24:11 44° ENE 14:28:24 10° SE
Cosmos 2026 Rocket 4.0 14:20:45 10° SSE 14:26:37 54° E 14:32:32 10° NNE
Aureole 3 Rocket 4.2 14:24:24 10° N 14:25:31 19° N 14:25:31 19° N
Aureole 2 Rocket 4.0 14:28:14 10° NNW 14:29:46 20° N 14:29:46 20° N
PSLV R/B 3.8 14:29:02 22° NNE 14:31:44 85° ESE 14:35:52 10° SSW
Cosmos 2344 4.2 14:23:13 10° WNW 14:31:48 86° SSW 14:43:32 10° ESE
NOAA 11 4.2 14:27:41 10° SE 14:33:00 55° ENE 14:38:24 10° NNW
OPS 0252 4.4 14:30:08 10° WSW 14:33:29 81° SSE 14:33:41 74° E
COBE Rocket 3.7 14:31:15 18° NNE 14:34:43 73° ESE 14:39:25 10° S
YAOGAN 6 2.4 14:32:32 10° SSE 14:36:08 83° ENE 14:39:49 10° NNW
Cosmos 2360 Rocket 3.1 14:31:05 10° W 14:36:30 42° NNW 14:39:45 22° NNE
Cosmos 1782 Rocket 3.9 14:32:14 10° NNW 14:36:35 66° W 14:40:53 10° S
Cosmos 2322 4.3 14:31:25 10° WSW 14:36:59 52° NW 14:40:22 23° NNE
Cosmos 1263 4.2 14:34:57 10° SSW 14:38:00 88° ESE 14:38:41 53° NNE
SKYMED 2 4.5 14:39:34 31° SE 14:39:34 31° SE 14:42:33 10° SSE
Cosmos 192 4.4 14:34:05 10° NNW 14:38:59 56° NE 14:40:53 34° ESE
Cosmos 1656 Rocket 3.5 14:34:39 10° NW 14:40:06 68° NE 14:43:09 27° ESE
Cosmos 2369 Rocket 2.3 14:34:53 10° NW 14:40:32 78° SW 14:46:11 10° SSE
Cosmos 1417 Rocket 4.3 14:34:31 10° NNW 14:40:42 80° ENE 14:46:52 10° SSE
COSMOS 2455 3.4 14:37:39 10° W 14:43:31 48° N 14:46:05 31° NE
Cosmos 1190 Rocket 4.4 14:38:51 10° S 14:43:42 41° ESE 14:44:19 39° E
Cosmos 1980 Rocket 3.4 14:39:06 10° WNW 14:44:05 29° N 14:45:53 25° NNE
Cosmos 2315 Rocket 4.2 14:38:14 10° N 14:44:22 46° ENE 14:48:40 19° SE
Meteor 1-18 Rocket 4.3 14:40:45 10° S 14:46:12 52° E 14:48:46 29° NE
Cosmos 614 Rocket 4.1 14:42:54 10° S 14:47:47 49° ESE 14:48:38 44° E
NOSS 2-2 (D) 3.9 14:43:56 10° W 14:48:12 64° N 14:49:44 43° ENE
Okean 2 Rocket 3.0 14:46:28 10° NNW 14:50:59 89° E 14:55:30 10° SSE
Cosmos 1862 Rocket 4.5 14:47:35 10° SW 14:51:51 48° WNW 14:55:37 13° N
Cosmos 1743 3.5 14:50:03 10° NNW 14:53:51 52° W 14:57:37 10° S
RESURS DK-1 3.0 14:50:07 10° WSW 14:54:10 50° NW 14:55:18 38° NNE
Cosmos 841 Rocket 3.6 14:49:11 10° NNW 14:54:16 51° NE 14:55:01 47° ENE
Cosmos 1939 Rocket 3.6 14:55:57 36° N 14:55:57 36° N 14:58:28 10° N
SL-16 R/B 2.4 14:49:08 10° SSW 14:54:37 52° ESE 14:55:54 43° ENE
Cosmos 1703 Rocket 3.5 14:51:00 10° SSW 14:55:31 90° WNW 14:57:44 30° NNE
Sich 1 Rocket 4.2 14:51:42 10° NNW 14:56:03 58° W 15:00:21 10° S
CZ-2D R/B 4.4 15:00:20 32° N 15:00:20 32° N 15:02:30 10° NNW
NOSS 3-1 (C) 4.3 14:52:26 10° WNW 14:59:22 64° SW 15:07:27 10° SE
CZ-4B R/B 3.9 14:58:36 11° N 15:01:04 20° NW 15:03:40 10° WSW
Meteor 2-8 Rocket 4.4 14:55:11 10° NNW 15:01:11 58° ENE 15:05:41 18° SE
Cosmos 2237 Rocket 2.2 14:56:29 10° SW 15:02:13 84° NW 15:04:36 37° NE
Cosmos 1943 Rocket 2.9 14:57:41 10° NW 15:03:12 54° WSW 15:08:38 10° SSE
Cosmos 2221 Rocket 4.4 14:59:04 10° S 15:01:55 35° SSE 15:01:55 35° SSE
Cosmos 1627 Rocket 4.4 14:57:39 10° S 15:03:48 88° E 15:10:03 10° NNE
Cosmos 2195 Rocket 4.5 14:58:12 10° SSW 15:04:29 87° WNW 15:10:53 10° NNE
Cosmos 2322 Rocket 3.4 15:01:26 10° WNW 15:06:27 31° NNW 15:08:20 26° NNE
Cosmos 540 Rocket 3.5 15:03:15 10° NNW 15:08:18 54° NE 15:08:21 54° NE
Cosmos 2219 Rocket 2.8 15:03:39 10° WSW 15:09:09 50° NW 15:11:38 30° NNE
Lacrosse 5 rocket 1.7 15:05:18 10° WSW 15:09:17 49° S 15:09:17 49° S
USA 229 DEB 4.4 15:03:15 10° WNW 15:10:10 57° SW 15:17:26 10° SSE
USA 229 4.4 15:03:22 10° WNW 15:10:16 57° SW 15:17:29 10° SSE
Cosmos 1697 Rocket 3.6 15:05:52 10° NW 15:10:55 32° NNE 15:11:22 32° NNE
Cosmos 2333 Rocket 2.9 15:05:21 10° WSW 15:10:59 50° NNW 15:13:30 31° NNE
SL-4 R/B 4.0 15:10:16 10° WSW 15:13:04 19° SSW 15:13:54 18° S
Cosmos 1140 Rocket 3.6 15:08:58 10° S 15:13:34 52° SE 15:13:34 52° SE
GENESIS II 4.4 15:11:10 10° WNW 15:15:19 72° SW 15:15:25 72° SSW
NOSS 3-1 (A) 4.1 15:08:49 10° WNW 15:15:45 69° SW 15:21:29 21° SE
Cosmos 1092 Rocket 4.3 15:11:10 10° SSW 15:17:25 67° WNW 15:23:39 10° NNE
SL-16 R/B 3.4 15:12:51 10° WNW 15:17:50 30° N 15:19:13 27° NNE
NOSS 3-4 (A) 3.6 15:11:36 10° W 15:17:55 74° N 15:19:58 47° ENE
NOSS 3-4 (C) 3.6 15:11:42 10° W 15:18:00 74° N 15:20:04 47° ENE
Envisat 4.2 15:13:14 10° SSW 15:18:03 42° W 15:22:54 10° NNW
Cosmos 468 Rocket 4.0 15:12:56 10° NW 15:18:08 77° WSW 15:20:57 28° SSE
Aureole 1 Rocket 3.2 15:15:44 10° SW 15:18:15 51° WSW 15:18:15 51° WSW
Meteor 2-13 Rocket 4.3 15:13:54 10° S 15:19:52 61° E 15:21:47 42° NE
Cosmos 1656 4.3 15:15:11 10° NW 15:20:01 36° NNE 15:20:01 36° NNE
Cosmos 1655 Rocket 3.9 15:14:17 10° S 15:20:29 64° E 15:23:51 28° NNE
Okean 1 3.6 15:17:44 10° SSW 15:21:03 60° SSW 15:21:03 60° SSW
Cosmos 2251 Rocket 4.2 15:17:53 10° WSW 15:23:03 50° NW 15:25:11 32° N
Meteor 1-15 Rocket 4.1 15:18:39 10° NNW 15:24:17 63° ENE 15:24:32 63° E
Meteor 2-4 Rocket 4.2 15:18:42 10° S 15:22:53 42° SE 15:22:53 42° SE
CSL-04 Rocket 4.0 15:19:35 10° S 15:24:51 65° WSW 15:30:12 10° NNW
Okean 1-7 3.5 15:21:16 10° SSW 15:25:37 61° WNW 15:26:57 41° N
NOSS 2-2 (C) 3.9 15:21:45 10° WNW 15:26:11 66° N 15:26:27 65° NNE
Cosmos 405 Rocket 3.5 15:22:48 10° NNW 15:26:23 48° W 15:27:20 38° SW
COSMO-SKYMED 1 3.2 15:28:07 45° S 15:28:07 45° S 15:31:10 10° SSW
Cosmos 1300 Rocket 3.9 15:23:35 10° NNW 15:27:52 61° W 15:32:07 10° S
Cosmos 407 Rocket 3.4 15:22:49 10° SSW 15:28:04 81° ESE 15:28:32 73° ENE
Cosmos 1980 4.0 15:28:51 10° WSW 15:34:28 60° NW 15:36:03 44° NNE
Exosat Rocket 4.1 15:31:14 10° WSW 15:36:08 54° NW 15:37:43 39° N
Meteor 1-19 Rocket 4.0 15:30:40 10° S 15:36:08 81° ESE 15:36:32 75° NE
YAOGAN 1 3.5 15:33:43 10° S 15:37:54 47° W 15:42:08 10° NNW
Cosmos 2208 Rocket 4.0 15:32:58 10° NW 15:38:26 86° WSW 15:39:10 68° SSE
CZ-4 R/B 2.9 15:36:41 10° SSW 15:40:15 34° W 15:43:48 10° NNW
Cosmos 1814 Rocket 3.9 15:36:48 10° NNW 15:41:48 79° N 15:41:48 79° N
ARGOS 4.0 15:45:00 37° N 15:45:00 37° N 15:48:22 10° NNW
H-2A R/B 3.3 15:48:47 29° N 15:48:47 29° N 15:51:14 10° NNW
NOSS 2-2 (E) 4.1 15:42:13 10° WNW 15:46:37 70° N 15:46:37 70° N
SeaSat 1 2.6 15:50:09 70° NW 15:50:09 70° NW 15:54:32 10° NW
Cosmos 1570 Rocket 4.3 15:47:42 10° NW 15:52:56 65° WSW 15:53:32 60° SSW
Meteor 2-15 4.4 15:48:33 10° NNW 15:53:59 66° NNE 15:53:59 66° NNE
Lacrosse 4 Rocket 2.6 15:52:02 10° NW 15:54:52 40° WNW 15:54:52 40° WNW
ATLAS 2AS CENTAUR R/B 3.0 15:48:15 10° W 15:56:18 72° N 15:57:45 59° ENE
Cosmos 2266 Rocket 4.0 15:50:01 10° S 15:55:37 67° SSE 15:55:37 67° SSE
Ariane Rocket 3.3 16:00:38 63° SW 16:00:55 64° WSW 16:05:59 10° NNW
NOSS 0 Rocket 4.5 15:55:18 10° WSW 16:01:25 53° NNW 16:02:42 45° N
Lacrosse 5 4.4 15:59:42 10° S 15:59:45 10° S 15:59:45 10° S
COSMOS 2428 3.7 15:59:06 10° W 16:04:23 37° NNW 16:05:12 35° N
Cosmos 1763 Rocket 4.3 16:00:41 10° NW 16:05:34 47° WSW 16:06:26 43° SW
MOS 1 4.3 16:06:10 79° WSW 16:06:14 79° WSW 16:11:59 10° NNW
USA 215 3.3 16:07:17 60° SSE 16:07:17 60° SSE 16:13:43 10° WSW
CZ-4C R/B 4.4 16:03:54 10° S 16:04:09 11° S 16:04:09 11° S
Cosmos 2360 Rocket 3.6 16:16:53 10° WNW 16:21:31 29° N 16:21:31 29° N
Cosmos 2369 Rocket 4.3 16:19:32 10° NW 16:23:49 23° WSW 16:28:08 10° SSW
Cosmos 1980 Rocket 3.5 16:24:07 10° NW 16:27:39 31° NNW 16:27:39 31° NNW
COSMOS 2455 3.6 16:24:31 10° WNW 16:29:13 45° NNW 16:29:13 45° NNW
SL-16 R/B 3.0 16:33:12 10° WSW 16:37:48 49° WNW 16:37:48 49° WNW
Cosmos 2237 Rocket 3.4 16:41:42 10° W 16:46:26 37° NW 16:46:26 37° NW
Lacrosse 5 rocket 4.3 16:44:17 10° W 16:44:56 14° W 16:44:56 14° W
Cosmos 2322 Rocket 3.9 16:46:56 10° NW 16:50:08 26° NNW 16:50:08 26° NNW
Cosmos 2219 Rocket 3.8 16:49:19 10° WNW 16:53:21 29° NNW 16:53:21 29° NNW
Cosmos 1697 Rocket 4.2 16:50:17 10° NW 16:53:06 29° NNW 16:53:06 29° NNW
Cosmos 2333 Rocket 3.8 16:51:20 10° WNW 16:55:30 30° NNW 16:55:30 30° NNW
SL-16 R/B 4.0 16:58:14 10° NW 17:01:04 25° NNW 17:01:04 25° NNW
NOSS 3-4 (A) 4.3 17:02:47 10° WNW 17:07:24 50° WNW 17:07:24 50° WNW
NOSS 3-4 (C) 4.3 17:02:55 10° WNW 17:07:30 49° WNW 17:07:30 49° WNW
H-2A R/B 4.5 17:29:24 16° NW 17:29:24 16° NW 17:30:36 10° NNW
ATLAS 2AS CENTAUR R/B 3.7 17:39:48 10° WNW 17:45:10 47° WNW 17:45:10 47° WNW
